Weather History for LICZ - April, 2013

Change the Weather History Date:

Tuesday, April 23, 2013

  Actual Average Record
Temperature  
Mean Temperature 62 °F -  
Max Temperature 70 °F 76 °F 79 °F (2015)
Min Temperature 54 °F 52 °F 39 °F (2005)
Degree Days  
Heating Degree Days 3    
Growing Degree Days 12 (Base 50)    
Moisture  
Dew Point 56 °F    
Average Humidity 81    
Maximum Humidity 100    
Minimum Humidity 51    
Precipitation  
Precipitation 0.00 in 0.03 in - ()
Sea Level Pressure  
Sea Level Pressure 30.08 in    
Wind  
Wind Speed 10 mph ()    
Max Wind Speed 26 mph    
Max Gust Speed -    
Visibility 3.9 miles    
Events      
Averages and records for this station are not official NWS values.
T = Trace of Precipitation, MM = Missing Value Source: Averaged Metar Reports

Daily Weather History Graph

Daily Weather History Graph

Search for Another Location

Airport or City:

Trip Planner

Search our weather history database for the weather conditions in past years. The results will help you decide how hot, cold, wet, or windy it might be!

Date:

Astronomy

Apr. 23, 2013 Rise Set
Actual Time 6:15 AM CEST 7:42 PM CEST
Civil Twilight 5:47 AM CEST 8:10 PM CEST
Nautical Twilight 5:14 AM CEST 8:43 PM CEST
Astronomical Twilight 4:40 AM CEST 9:18 PM CEST
Moon 5:20 PM CEST (4/23) 4:29 AM CEST (4/23)
Length of Visible Light 14h 22m
Length of Day
13h 27m
Waxing Gibbous, 92% of the Moon is Illuminated
Apr 23
Waxing Gibbous
Apr 25
Full
May 2
Last Quarter
May 10
New
May 18
First Quarter

Hourly Weather History & Observations

Time (CEST) Temp. Dew Point Humidity Pressure Visibility Wind Dir Wind Speed Gust Speed Precip Events Conditions
12:55 AM 55.4 °F 55.4 °F 100% 30.04 in 3.7 mi SE 2.3 mph - N/A   Mostly Cloudy
1:55 AM 55.4 °F 55.4 °F 100% 30.04 in 3.1 mi West 2.3 mph - N/A   Mostly Cloudy
2:00 AM 56 °F 56 °F 98% 30.05 in 2 mi West 2.3 mph - -   Mist
2:55 AM 55.4 °F 55.4 °F 100% 30.01 in 3.1 mi North 2.3 mph - N/A   Mostly Cloudy
3:55 AM 55.4 °F 55.4 °F 100% 30.01 in 2.5 mi WNW 4.6 mph - N/A   Mostly Cloudy
4:55 AM 55.4 °F 55.4 °F 100% 30.01 in 2.5 mi South 2.3 mph - N/A   Mostly Cloudy
5:00 AM 56 °F 56 °F 98% 30.02 in 2 mi South 2.3 mph - -   Mist
5:55 AM 55.4 °F 55.4 °F 100% 30.01 in 2.2 mi SE 2.3 mph - N/A   Mostly Cloudy
6:55 AM 55.4 °F 55.4 °F 100% 30.04 in 2.2 mi NW 2.3 mph - N/A   Mostly Cloudy
7:55 AM 57.2 °F 57.2 °F 100% 30.04 in 2.2 mi Calm Calm - N/A   Mostly Cloudy
8:00 AM 57 °F 57 °F 98% 30.06 in 2 mi Calm Calm - -   Mist
8:55 AM 64.4 °F 62.6 °F 94% 30.06 in 2.2 mi ENE 15.0 mph - N/A   Scattered Clouds
9:55 AM 66.2 °F 64.4 °F 94% 30.09 in 2.5 mi ENE 18.4 mph - N/A   Scattered Clouds
10:55 AM 68.0 °F 60.8 °F 78% 30.09 in 2.8 mi ENE 21.9 mph - N/A   Mostly Cloudy
11:00 AM 67 °F 61 °F 74% 30.09 in 3 mi ENE 21.9 mph - -   Mist
11:55 AM 69.8 °F 60.8 °F 73% 30.09 in 3.1 mi ENE 26.5 mph - N/A   Mostly Cloudy
12:55 PM 66.2 °F 57.2 °F 73% 30.09 in 3.7 mi East 20.7 mph - N/A   Mostly Cloudy
1:55 PM 68.0 °F 55.4 °F 64% 30.09 in 5.0 mi ENE 25.3 mph - N/A   Scattered Clouds
2:00 PM 69 °F 55 °F 51% 30.11 in 3 mi ENE 25.3 mph - -   Mist
2:55 PM 68.0 °F 53.6 °F 60% 30.09 in 5.0 mi ENE 25.3 mph - N/A   Scattered Clouds
3:55 PM 68.0 °F 55.4 °F 64% 30.09 in 5.0 mi ENE 25.3 mph - N/A   Scattered Clouds
4:55 PM 68.0 °F 55.4 °F 64% 30.09 in 5.0 mi ENE 24.2 mph - N/A   Partly Cloudy
5:00 PM 68 °F 56 °F 57% 30.10 in 5 mi ENE 24.2 mph - -   Mist
5:55 PM 66.2 °F 55.4 °F 68% 30.09 in 5.0 mi ENE 21.9 mph - N/A   Partly Cloudy
6:55 PM 64.4 °F 55.4 °F 73% 30.09 in 6.2 mi ENE 19.6 mph - N/A   Partly Cloudy
7:55 PM 62.6 °F 51.8 °F 68% 30.12 in 6.2 mi ENE 18.4 mph - N/A   Partly Cloudy
8:00 PM 63 °F 51 °F 57% 30.13 in 5 mi ENE 18.4 mph - -   Mist
8:55 PM 60.8 °F 51.8 °F 72% 30.15 in 6.2 mi ENE 15.0 mph - N/A   Partly Cloudy
9:55 PM 59.0 °F 53.6 °F 82% 30.18 in 6.2 mi ENE 18.4 mph - N/A   Partly Cloudy
10:55 PM 60.8 °F 55.4 °F 82% 30.18 in 6.2 mi ENE 16.1 mph - N/A   Partly Cloudy
11:00 PM 62 °F 56 °F 75% 30.19 in 6 mi ENE 16.1 mph - -   Scattered Clouds
11:55 PM 60.8 °F 57.2 °F 88% 30.15 in 6.2 mi East 17.3 mph - N/A   Scattered Clouds